Zurück zum Katalog

LAGEOS 1

AktivWissenschaftMEO
NORAD 8820·PAYLOAD·🇺🇸 United States

Gestartet May 4, 1976 von Vandenberg Space Force Base

Loading…

Nächste Überflüge (nächste 24 Stunden)

TLE

AktuellSource: CelesTrak SupGP

Epoche: Sep 14, 2026, 00:00 UTC

1 08820C 76039A   26257.00000000  .00000001  00000+0  00000+0 0  2571
2 08820 109.8170 209.7295 0044606 283.2259  33.7454  6.38664916    17

Verfolge LAGEOS 1 in Echtzeit mit AllMySat

Download on the App Store